Location: Carabito
(9.8355°N, 67.9249°W)
Time: 20:27:24
(UTC+00:00)

Cosmos 2333 Rocket - Pass Details

Date: 23 May 2024
Orbit: 838 x 863 km, 70.8° (Epoch: 22 June)

Event Time Altitude Azimuth Distance (km) Brightness Sun altitude
Rises 07:46:59 0° 352° (N) 3,418 5.7 -32.5°
Reaches altitude 10° 07:49:30 10° 357° (N) 2,485 4.9 -31.9°
Maximum altitude 07:55:03 52° 73° (ENE) 1,057 2.9 -30.8°
Drops below altitude 10° 08:00:37 10° 149° (SSE) 2,495 4.6 -29.6°
Sets 08:03:09 0° 154° (SSE) 3,432 5.3 -29.1°
